Tracking 30466 objects as of 17-May-2025
HD Live streaming from Space Station
objects crossing your sky now

THORAD AGENA D DEB

Track THORAD AGENA D DEB now!
10-day predictions


NORAD ID: 19150
Int'l Code: 1970-025PS
Perigee: 827.1 km
Apogee: 859.1 km
Inclination: 100.3 °
Period: 101.6 minutes
Semi major axis: 7214 km
RCS: 0.0118 m2 (small)
Launch date: April 8, 1970
Source: United States (US)
Launch site: AIR FORCE WESTERN TEST RANGE (AFWTR)

Note: This is SATELLITE DEBRIS
Your satellite tracking list
Your tracking list is empty




NASA's NSSDC Master Catalog

Two Line Element Set (TLE):
1 19150U 70025PS  25136.91272362  .00007368  00000-0  36911-2 0  9995
2 19150 100.3366  14.1500 0022178 141.1364 219.1404 14.16868646849123
Source of the keplerian elements: AFSPC